STARLINK-36554, 67502

Orbit data source: Space-Track

STARLINK-36554, 67502 is a payload satellite owned by SpaceX/Seattle (US) in LEO that was launched on Sun, 18 Jan 2026 UTC via an FALCON 9 launch vehicle from the Air Force Eastern Test Range (AFETR). Payload-class satellites include a variety of spacecraft equipped with specific instruments for various scientific and technological missions. These include communications satellites like Starlink; space stations such as the ISS; scientific satellites like the Hubble; Earth observation satellites from companies like Planet Labs, Umbra, and HawkEye 360; GPS; miniature CubeSats for education and research; and military/defense satellites.

Loading next visibility...
Identifier
67502, 2026-012K
Orbit
LEO
Country
Flag of USUS
Related business
Manufacturer
SpaceX/Seattle
Mission
Operational spacecraft
Bus & Motor
STARLINK V2MO, Unknown motor
Mass
575 kg wet, ~530 kg dry
Launch date (UTC)
2026-01-18 (2 weeks ago)
Launch vehicle
FALCON 9
Launch site
Air Force Eastern Test Range (AFETR)
Object type
Payload
Rocket body
Debris
Shape & HBR
Unknown
Radar Cross Section
RCS unknown

Expand to show TLE details & history
Last TLE update: 2 days ago

TLE from 2 days ago
0 STARLINK-36554
1 67502U 26012K   26032.79976357 -.00682874  00000-0 -29587-2 0  9997
2 67502  42.9961 161.4039 0003002 256.1503 103.9036 15.85525240  2229
Epoch: 2026-02-01T19:11Z
TLE epoch observation values (Epoch: 2026-02-01T19:11:39.572Z)
Latitude
-0.00002°
Longitude
101.48478°
Altitude
315.099 km
Speed
7.721 km/s
True Right ascension
10h 45m 36s
True Declination
0° 00' 00"
Sunlit
Object was in full shadow at epoch
Visualization orbit readout
Latitude
Unknown
Longitude
Unknown
Altitude
Unknown
Speed
Unknown
Apparent Right ascension
Unknown
Apparent Declination
Unknown
Sunlit
N/A
Visualization observer readout
Local Sidereal Time
07:22:51
Azimuth
Unknown
Elevation
Unknown
Doppler factor
Unknown
Orbital elements
Apogee altitude
318.851 km
Perigee altitude
314.831 km
Semi-major axis
6,694.978 km
Eccentricity
0.0003
Inclination
42.9961°
RAAN
161.4039°
Arg. of periapsis
256.1503°
True anomaly
103.93699°
Mean anomaly
103.9036°
Eccentric anomaly
103.9203°
Mean motion
3.96205 °/min
Orbital period
90.86 mins
BSTAR
-0.0029587
Loading maneuver chart data...
Computing Atmospheric mass density...
Loading historical data...
Loading historical data...
Loading historical data...
Loading historical data...
Loading historical data...
Loading historical data...
Loading historical data...

Documentation

Showing up to 5 results
|